Flag for Gambia Weather past 2 weeks in Banjul, Gambia

Now
82 °F

Clear.


Feels Like: 83 °F
Forecast: N/A
Wind: No wind

Location: Banjul / Yundum

Current Time: Dec 25, 2014 at 8:10:01 PM

Latest Report: Dec 25, 2014 at 7:00 PM


Visibility: 10 mi

Pressure: 29.89 "Hg

Humidity: 48%

Dew point: 61 °F

Location of BanjulLocation

Historic Weather in Banjul — Graph

°F

Banjul temperature yesterday

Maximum temperature yesterday: 91 °F (at 2:00 PM)
Minimum temperature yesterday: 64 °F (at 4:00 AM)
Average temperature yesterday: 77 °F

Past Weeks' High & Low Weather Summary

 TemperatureHumidityPressure
High95 °F (Dec 25, 3:00 PM)88% (Dec 21, 12:00 AM)32.75 "Hg (Dec 21, 12:00 AM)
Low61 °F (Dec 13, 7:00 AM)12% (Dec 13, 11:00 AM)29.80 "Hg (Dec 11, 5:00 PM)
Average75 °F43%29.91 "Hg
* Reported Dec 10 7:00 PM — Dec 25 7:00 PM, Banjul, Weather by CustomWeather, © 2014

Note: Actual official high and low records may vary slightly from our data, if they occured in-between our weather recording intervals... More about our weather records

Advertising

Banjul weather history for previous 24 hours

 ConditionsComfort  
Time TempWeatherWind HumidityBarometerVisibility
7:00 PM
Dec 25
82 °FClear.No wind48%29.89 "Hg10 mi
6:00 PM93 °FSunny.No wind32%29.92 "Hg10 mi
5:00 PM95 °FSunny.10 mph20%29.92 "Hg10 mi
4:00 PM95 °FSunny.13 mph18%29.92 "Hg10 mi
3:00 PM95 °FSunny.14 mph18%29.92 "Hg10 mi
2:00 PM93 °FSunny.17 mph20%29.92 "Hg10 mi
1:00 PM91 °FSunny.12 mph21%29.92 "Hg10 mi
12:00 PM88 °FSunny.12 mph19%29.95 "Hg10 mi
11:00 AM84 °FSunny.17 mph23%29.95 "Hg10 mi
10:00 AM79 °FSunny.9 mph39%29.95 "Hg10 mi
9:00 AM73 °FClear.6 mph47%29.95 "Hg6 mi
8:00 AM66 °FClear.7 mph64%29.95 "Hg6 mi
7:00 AM64 °FClear.6 mph73%29.92 "Hg5 mi
6:00 AM68 °FClear.7 mph64%29.92 "Hg5 mi
5:00 AM70 °FClear.7 mph64%29.89 "Hg5 mi
4:00 AM70 °FClear.8 mph64%29.89 "Hg5 mi
3:00 AM72 °FClear.12 mph61%29.92 "Hg5 mi
2:00 AM72 °FClear.7 mph73%29.92 "Hg5 mi
1:00 AM72 °FClear.3 mph69%29.92 "Hg5 mi
12:00 AM72 °FClear.No wind78%29.92 "Hg5 mi
11:00 PM
Dec 24
70 °FClear.No wind83%29.92 "Hg5 mi
10:00 PM72 °FClear.No wind78%29.89 "Hg5 mi
9:00 PM72 °FClear.No wind78%29.89 "Hg5 mi
8:00 PM75 °FClear.2 mph65%29.89 "Hg5 mi
Weather by CustomWeather, © 2014

See weather overviewHow to use our weather pages